Weather in Golitsyno

Russia / Penza Oblast     53°37′24″N   44°06′55″E
temp.,
°C
wind,
m/s
gust,
m/s
humid.,
%
clouds,
%
prec.,
mm/h
press.,
hPa
HPBL,
m
21 january, fri
fri2100:00−14s6159481 0.0 1017282
03:00−15s6149580 0.0 1016282
06:00−15s61595100 0.0 1015275
09:00−13sse71892100 0.0 1014390
12:00−10sse92089100 0.0 1012538
15:00−8sse102088100 0.1 1010714
18:00−7sse91793100 0.6 1009648
21:00−7sse91794100 1.4 1008642
22 january, sat
sat2200:00−5sse8159294 1.2 1008587
03:00−6s499690 1.4 1010232
06:00−11sse499763 0.0 1012137
09:00−12sse4119672 0.0 1014178
12:00−8sse5119457 0.0 1015310
15:00−8sse49945 0.0 1016249
18:00−11sse369759 0.0 101875
21:00−11sse259991 0.0 101964
23 january, sun
sun2300:00−6s3691100 0.0 1020198
03:00−6s3487100 0.1 1021114
06:00−7sse2393100 0.0 102370
09:00−11ese1198100 0.0 102612
12:00−6e2394100 0.0 1027133
15:00−5ene3695100 0.0 1028251
18:00−4ene4996100 0.1 1029333
21:00−4e51095100 0.6 1030441
24 january, mon
mon2400:00−5e51092100 0.4 1031382
03:00−7e41088100 0.4 1032276
06:00−10e4990100 0.0 1033182
09:00−10e41190100 0.0 1033231
12:00−8ese41287100 0.0 1033332
15:00−7ese5118787 0.0 1032325
18:00−8ese5118790 0.0 1033241
21:00−11ese41189100 0.0 1033205
25 january, tue
tue2500:00−12ese41187100 0.0 1033192
03:00−13se41087100 0.0 1032169
06:00−14se41086100 0.0 1032158
09:00−14se41186100 0.0 1032189
12:00−10se4118595 0.0 1031265
15:00−10se41187100 0.0 1029264
18:00−13se4119147 0.0 1030181
21:00−13se512935 0.0 1030200